Location: Peebles
(55.6412°N, 3.1714°W)
Time: 15:23:21
(UTC+01:00)

CARTOSAT-1 - Pass Details

Date: 26 September 2021
Orbit: 617 x 617 km, 97.8° (Epoch: 17 October)

Event Time Altitude Azimuth Distance (km) Brightness Sun altitude
Exits shadow 21:24:05 34° 63° (ENE) 1,029 4.4 -20.3°
Drops below altitude 10° 21:27:59 10° 359° (N) 1,996 6.5 -20.8°
Sets 21:30:19 0° 350° (N) 2,906 7.6 -21.1°
